Natchez, MS

4:44 AM CST on December 09, 2019 (GMT -0600)
Hardy-Anders-Adams County

Weather History for KHEZ - November, 2019

Change the Weather History Date:

Tuesday, November 19, 2019

  Actual Average Record
Temperature  
Mean Temperature 56 °F -  
Max Temperature 75 °F 70 °F 85 °F (1930)
Min Temperature 36 °F 50 °F 23 °F (1951)
Degree Days  
Heating Degree Days 10    
Growing Degree Days 6 (Base 50)    
Moisture  
Dew Point 42 °F    
Average Humidity 70    
Maximum Humidity 93    
Minimum Humidity 28    
Precipitation  
Precipitation 0.00 in - - ()
Sea Level Pressure  
Sea Level Pressure 30.01 in    
Wind  
Wind Speed 3 mph (SW)    
Max Wind Speed 9 mph    
Max Gust Speed -    
Visibility 9 miles    
Events Fog , Rain    
Averages and records for this station are not official NWS values.
T = Trace of Precipitation, MM = Missing Value Source: NWS Daily Summary

Daily Weather History Graph

Daily Weather History Graph

Search for Another Location

Airport or City:

Astronomy

Nov. 19, 2019 Rise Set
Actual Time 6:36 AM CST 5:04 PM CST
Civil Twilight 6:10 AM CST 5:30 PM CST
Nautical Twilight 5:40 AM CST 5:59 PM CST
Astronomical Twilight 5:11 AM CST 6:28 PM CST
Moon 11:56 PM CST (11/19) 12:49 PM CST (11/19)
Length of Visible Light 11h 19m
Length of Day
10h 27m
Waning Gibbous, 51% of the Moon is Illuminated
Nov 19
Waning Gibbous
Nov 19
Last Quarter
Nov 26
New
Dec 4
First Quarter
Dec 11
Full

Hourly Weather History & Observations

Time (CST) Temp. Windchill Dew Point Humidity Pressure Visibility Wind Dir Wind Speed Gust Speed Precip Events Conditions
12:56 AM 37.9 °F - 36.0 °F 93% 29.95 in 10.0 mi Calm Calm - N/A   Clear
1:56 AM 37.9 °F - 36.0 °F 93% 29.95 in 10.0 mi Calm Calm - N/A   Clear
2:56 AM 37.9 °F - 36.0 °F 93% 29.95 in 10.0 mi Calm Calm - N/A   Clear
3:56 AM 36.0 °F 32.1 °F 34.0 °F 93% 29.95 in 10.0 mi South 4.6 mph - N/A   Clear
4:56 AM 37.9 °F 35.5 °F 35.1 °F 89% 29.95 in 10.0 mi SSW 3.5 mph - N/A   Clear
5:56 AM 37.9 °F 33.5 °F 36.0 °F 93% 29.96 in 10.0 mi SW 5.8 mph - N/A   Clear
6:56 AM 37.9 °F 34.4 °F 36.0 °F 93% 29.98 in 10.0 mi South 4.6 mph - N/A   Clear
7:56 AM 52.0 °F - 39.9 °F 63% 30.00 in 10.0 mi SW 6.9 mph - N/A   Clear
8:14 AM 53.6 °F - 41.0 °F 62% 30.00 in 2.5 mi SW 5.8 mph - N/A   Haze
8:24 AM 53.6 °F - 41.0 °F 62% 30.01 in 10.0 mi SW 5.8 mph - N/A   Clear
8:56 AM 57.0 °F - 42.1 °F 57% 30.01 in 10.0 mi SW 6.9 mph - N/A   Clear
9:56 AM 62.1 °F - 44.1 °F 52% 30.02 in 10.0 mi SW 8.1 mph - N/A   Clear
10:56 AM 66.9 °F - 45.0 °F 45% 30.02 in 10.0 mi WSW 8.1 mph - N/A   Clear
11:56 AM 69.1 °F - 46.0 °F 44% 30.01 in 10.0 mi WNW 9.2 mph - N/A   Clear
12:56 PM 71.1 °F - 46.0 °F 41% 29.99 in 10.0 mi Calm Calm - N/A   Clear
1:56 PM 75.0 °F - 46.0 °F 36% 29.98 in 10.0 mi West 9.2 mph - N/A   Clear
2:56 PM 75.9 °F - 44.1 °F 32% 29.98 in 10.0 mi NW 8.1 mph - N/A   Clear
3:56 PM 75.0 °F - 39.9 °F 28% 29.99 in 10.0 mi NW 5.8 mph - N/A   Clear
4:56 PM 68.0 °F - 42.1 °F 39% 30.00 in 10.0 mi Calm Calm - N/A   Clear
5:56 PM 60.1 °F - 44.1 °F 55% 30.01 in 10.0 mi South 3.5 mph - N/A   Clear
6:56 PM 55.0 °F - 46.0 °F 72% 30.04 in 10.0 mi Calm Calm - N/A   Clear
7:56 PM 51.1 °F - 45.0 °F 80% 30.05 in 10.0 mi SSE 4.6 mph - N/A   Clear
8:56 PM 48.9 °F - 45.0 °F 86% 30.06 in 2.5 mi Calm Calm - N/A   Clear
8:58 PM 48.2 °F - 44.6 °F 87% 30.05 in 1.0 mi Calm Calm - N/A   Clear
9:01 PM 48.2 °F - 44.6 °F 87% 30.05 in 0.5 mi Calm Calm - N/A Fog Fog
9:12 PM 46.4 °F 45.2 °F 42.8 °F 87% 30.05 in 5.0 mi South 3.5 mph - 0.00 in Rain Light Rain
9:56 PM 46.9 °F - 43.0 °F 86% 30.07 in 10.0 mi SSE 3.5 mph - 0.00 in   Clear
10:56 PM 46.9 °F - 44.1 °F 90% 30.07 in 10.0 mi Calm Calm - N/A   Clear
11:56 PM 44.1 °F - 42.1 °F 93% 30.07 in 10.0 mi Calm Calm - N/A   Clear